CAVA34 YSHW-YSHW

Flight info

Callsign CAVA34
Flight time 0h 48m
Altitude 3000
Route DCT
Aircraft H60/M-SDFGRY/LB1

Departure

Time 2026-04-26 09:19
Airport Holsworthy (Military) Airport (YSHW)

Arrival

Time 2026-04-26 10:07
Airport Holsworthy (Military) Airport (YSHW)
Time Latitude Longitude Altitude Speed Heading
2026-04-26 09:05 -33.99534 150.95304 238 ft 0 kts 124°
2026-04-26 09:17 -33.99537 150.95309 238 ft 4 kts 124°
2026-04-26 09:18 -33.99567 150.95361 239 ft 8 kts 125°
2026-04-26 09:18 -33.99596 150.95369 237 ft 4 kts 212°
2026-04-26 09:18 -33.99612 150.95357 237 ft 2 kts 213°
2026-04-26 09:18 -33.99628 150.95329 237 ft 6 kts 289°
2026-04-26 09:19 -33.99601 150.95279 245 ft 11 kts 304°
2026-04-26 09:19 -33.99547 150.95198 268 ft 11 kts 311°
2026-04-26 09:19 -33.99477 150.95050 395 ft 37 kts 319°
2026-04-26 09:19 -33.99219 150.94635 908 ft 84 kts 319°
2026-04-26 09:20 -33.98627 150.94379 1285 ft 109 kts 354°
2026-04-26 09:20 -33.97998 150.94906 1306 ft 120 kts 46°
2026-04-26 09:20 -33.97509 150.95718 1404 ft 118 kts 53°
2026-04-26 09:20 -33.97047 150.96475 1515 ft 109 kts 53°
2026-04-26 09:21 -33.96596 150.97205 1689 ft 109 kts 53°
2026-04-26 09:21 -33.96169 150.97943 1905 ft 107 kts 54°
2026-04-26 09:21 -33.95754 150.98697 2088 ft 107 kts 56°
2026-04-26 09:21 -33.95351 150.99447 2298 ft 105 kts 56°
2026-04-26 09:22 -33.94987 151.00206 2375 ft 105 kts 59°
2026-04-26 09:22 -33.94638 151.00963 2339 ft 104 kts 59°
2026-04-26 09:22 -33.94275 151.01728 2331 ft 113 kts 58°
2026-04-26 09:22 -33.93718 151.02455 2340 ft 121 kts 41°
2026-04-26 09:23 -33.93048 151.03069 2375 ft 115 kts 37°
2026-04-26 09:23 -33.92422 151.03592 2435 ft 107 kts 35°
2026-04-26 09:23 -33.91809 151.04087 2449 ft 108 kts 34°
2026-04-26 09:23 -33.91191 151.04578 2466 ft 102 kts 33°
2026-04-26 09:24 -33.90592 151.05005 2525 ft 99 kts 30°
2026-04-26 09:24 -33.89981 151.05437 2538 ft 105 kts 30°
2026-04-26 09:24 -33.89342 151.05889 2484 ft 107 kts 31°
2026-04-26 09:24 -33.88719 151.06330 2535 ft 101 kts 31°
2026-04-26 09:25 -33.88117 151.06759 2582 ft 102 kts 32°
2026-04-26 09:25 -33.87506 151.07260 2537 ft 106 kts 34°
2026-04-26 09:25 -33.86891 151.07756 2542 ft 107 kts 33°
2026-04-26 09:25 -33.86291 151.08260 2540 ft 108 kts 36°
2026-04-26 09:26 -33.85680 151.08809 2478 ft 111 kts 37°
2026-04-26 09:26 -33.85068 151.09349 2453 ft 109 kts 36°
2026-04-26 09:26 -33.84615 151.10079 2308 ft 115 kts 64°
2026-04-26 09:26 -33.84498 151.11060 2142 ft 122 kts 80°
2026-04-26 09:27 -33.84542 151.12066 2028 ft 119 kts 93°
2026-04-26 09:27 -33.84701 151.13013 2075 ft 111 kts 96°
2026-04-26 09:27 -33.84760 151.13912 2109 ft 105 kts 88°
2026-04-26 09:27 -33.84783 151.14748 2012 ft 95 kts 87°
2026-04-26 09:28 -33.84813 151.15474 2036 ft 82 kts 87°
2026-04-26 09:28 -33.84862 151.16196 1980 ft 88 kts 89°
2026-04-26 09:28 -33.84959 151.16933 1917 ft 93 kts 94°
2026-04-26 09:28 -33.85057 151.17730 1749 ft 101 kts 93°
2026-04-26 09:29 -33.85136 151.18639 1520 ft 117 kts 93°
2026-04-26 09:29 -33.85256 151.19564 1469 ft 102 kts 93°
2026-04-26 09:29 -33.85332 151.20417 1221 ft 115 kts 91°
2026-04-26 09:29 -33.85445 151.21296 1026 ft 91 kts 96°
2026-04-26 09:30 -33.85673 151.22080 1029 ft 106 kts 124°
2026-04-26 09:30 -33.86306 151.22296 1053 ft 101 kts 180°
2026-04-26 09:30 -33.86917 151.22206 1045 ft 74 kts 186°
2026-04-26 09:30 -33.87318 151.22185 1009 ft 43 kts 187°
2026-04-26 09:31 -33.87650 151.22163 937 ft 60 kts 188°
2026-04-26 09:31 -33.88211 151.22099 859 ft 91 kts 194°
2026-04-26 09:31 -33.88936 151.22042 779 ft 117 kts 181°
2026-04-26 09:31 -33.89569 151.22339 791 ft 81 kts 99°
2026-04-26 09:32 -33.89222 151.22779 966 ft 88 kts 16°
2026-04-26 09:32 -33.88833 151.22804 849 ft 73 kts 329°
2026-04-26 09:32 -33.88550 151.22464 470 ft 24 kts 298°
2026-04-26 09:32 -33.88534 151.22370 387 ft 1 kts 311°
2026-04-26 09:33 -33.88521 151.22354 276 ft 7 kts 316°
2026-04-26 09:33 -33.88522 151.22350 191 ft 0 kts 319°
2026-04-26 09:39 -33.88519 151.22349 190 ft 0 kts 321°
2026-04-26 09:42 -33.88517 151.22347 214 ft 1 kts 323°
2026-04-26 09:42 -33.88603 151.22232 361 ft 36 kts 205°
2026-04-26 09:42 -33.88956 151.22206 621 ft 76 kts 192°
2026-04-26 09:43 -33.89492 151.22328 573 ft 66 kts 118°
2026-04-26 09:43 -33.89420 151.22632 647 ft 52 kts
2026-04-26 09:43 -33.88982 151.22707 668 ft 69 kts 13°
2026-04-26 09:43 -33.88493 151.22822 771 ft 75 kts 15°
2026-04-26 09:44 -33.87976 151.22981 774 ft 75 kts 18°
2026-04-26 09:44 -33.87465 151.23188 770 ft 78 kts 19°
2026-04-26 09:44 -33.86936 151.23245 797 ft 77 kts
2026-04-26 09:44 -33.86491 151.22857 745 ft 90 kts 330°
2026-04-26 09:45 -33.86154 151.22172 778 ft 100 kts 296°
2026-04-26 09:45 -33.85885 151.21406 849 ft 100 kts 298°
2026-04-26 09:45 -33.85632 151.20617 889 ft 104 kts 299°
2026-04-26 09:45 -33.85372 151.19805 890 ft 101 kts 298°
2026-04-26 09:46 -33.85514 151.19201 1036 ft 67 kts 190°
2026-04-26 09:46 -33.85753 151.19526 837 ft 81 kts 91°
2026-04-26 09:46 -33.85547 151.20249 829 ft 98 kts 88°
2026-04-26 09:46 -33.85864 151.21073 736 ft 112 kts 118°
2026-04-26 09:47 -33.86235 151.21904 703 ft 118 kts 112°
2026-04-26 09:47 -33.86212 151.22685 576 ft 78 kts 38°
2026-04-26 09:47 -33.85755 151.22619 662 ft 72 kts 312°
2026-04-26 09:47 -33.85411 151.22149 739 ft 79 kts 312°
2026-04-26 09:48 -33.85124 151.21508 711 ft 97 kts 305°
2026-04-26 09:48 -33.84845 151.20807 742 ft 83 kts 303°
2026-04-26 09:48 -33.84922 151.20216 777 ft 85 kts 209°
2026-04-26 09:48 -33.85406 151.20257 800 ft 72 kts 127°
2026-04-26 09:49 -33.85708 151.20791 792 ft 82 kts 120°
2026-04-26 09:49 -33.86020 151.21364 890 ft 80 kts 118°
2026-04-26 09:49 -33.86153 151.21956 859 ft 82 kts 77°
2026-04-26 09:49 -33.85664 151.22233 828 ft 77 kts 354°
2026-04-26 09:50 -33.85245 151.21905 952 ft 72 kts 313°
2026-04-26 09:50 -33.84970 151.21387 905 ft 79 kts 310°
2026-04-26 09:50 -33.84776 151.20756 826 ft 85 kts 290°
2026-04-26 09:50 -33.84987 151.20100 812 ft 80 kts 211°
2026-04-26 09:51 -33.85404 151.19843 810 ft 75 kts 204°
2026-04-26 09:51 -33.85927 151.19780 785 ft 75 kts 192°
2026-04-26 09:51 -33.86240 151.19781 717 ft 62 kts 170°
2026-04-26 09:51 -33.86457 151.20208 711 ft 37 kts 118°
2026-04-26 09:52 -33.86320 151.20451 654 ft 76 kts 64°
2026-04-26 09:52 -33.85749 151.21750 692 ft 114 kts 109°
2026-04-26 09:52 -33.86393 151.22338 792 ft 127 kts 149°
2026-04-26 09:53 -33.87321 151.22416 760 ft 139 kts 180°
2026-04-26 09:53 -33.88276 151.22269 751 ft 136 kts 190°
2026-04-26 09:53 -33.89069 151.22059 908 ft 106 kts 192°
2026-04-26 09:53 -33.89656 151.22349 872 ft 91 kts 101°
2026-04-26 09:54 -33.89539 151.22944 847 ft 78 kts 12°
2026-04-26 09:54 -33.88920 151.23070 972 ft 108 kts 10°
2026-04-26 09:54 -33.88090 151.23053 960 ft 125 kts
2026-04-26 09:54 -33.87221 151.22959 979 ft 126 kts 356°
2026-04-26 09:55 -33.86374 151.22792 1113 ft 120 kts 353°
2026-04-26 09:55 -33.85646 151.22294 1188 ft 128 kts 325°
2026-04-26 09:55 -33.85163 151.21369 925 ft 137 kts 303°
2026-04-26 09:55 -33.84831 151.20349 970 ft 120 kts 296°
2026-04-26 09:56 -33.84640 151.19556 1717 ft 87 kts 295°
2026-04-26 09:56 -33.84414 151.18682 1577 ft 127 kts 296°
2026-04-26 09:56 -33.84070 151.17658 1192 ft 129 kts 298°
2026-04-26 09:56 -33.83812 151.16752 1381 ft 109 kts 296°
2026-04-26 09:57 -33.83581 151.15920 1571 ft 99 kts 297°
2026-04-26 09:57 -33.83320 151.15171 1789 ft 102 kts 302°
2026-04-26 09:57 -33.83052 151.14335 1800 ft 113 kts 298°
2026-04-26 09:57 -33.82845 151.13363 1646 ft 124 kts 290°
2026-04-26 09:58 -33.82653 151.12333 1424 ft 126 kts 289°
2026-04-26 09:58 -33.82469 151.11365 1449 ft 114 kts 290°
2026-04-26 09:58 -33.82320 151.10458 1546 ft 108 kts 287°
2026-04-26 09:58 -33.82525 151.09577 1635 ft 115 kts 253°
2026-04-26 09:59 -33.82988 151.08769 1681 ft 121 kts 242°
2026-04-26 09:59 -33.83444 151.07866 1585 ft 130 kts 243°
2026-04-26 09:59 -33.83888 151.06958 1580 ft 125 kts 244°
2026-04-26 09:59 -33.84330 151.06052 1569 ft 123 kts 243°
2026-04-26 10:00 -33.84788 151.05208 1660 ft 121 kts 241°
2026-04-26 10:00 -33.85271 151.04368 1695 ft 122 kts 240°
2026-04-26 10:00 -33.85763 151.03548 1753 ft 119 kts 238°
2026-04-26 10:00 -33.86237 151.02760 1861 ft 113 kts 238°
2026-04-26 10:01 -33.86684 151.02048 1923 ft 96 kts 237°
2026-04-26 10:01 -33.87085 151.01494 2012 ft 82 kts 234°
2026-04-26 10:01 -33.87600 151.01159 1962 ft 89 kts 206°
2026-04-26 10:01 -33.88148 151.00910 2015 ft 72 kts 205°
2026-04-26 10:02 -33.88641 151.00694 1883 ft 78 kts 204°
2026-04-26 10:02 -33.89174 151.00481 1640 ft 79 kts 201°
2026-04-26 10:02 -33.89705 151.00273 1557 ft 81 kts 200°
2026-04-26 10:02 -33.90234 151.00055 1531 ft 78 kts 201°
2026-04-26 10:03 -33.90737 150.99869 1516 ft 75 kts 200°
2026-04-26 10:03 -33.91231 150.99665 1454 ft 82 kts 201°
2026-04-26 10:03 -33.91777 150.99386 1373 ft 82 kts 204°
2026-04-26 10:03 -33.92301 150.99132 1344 ft 83 kts 204°
2026-04-26 10:04 -33.92870 150.98823 1254 ft 91 kts 206°
2026-04-26 10:04 -33.93454 150.98482 1225 ft 88 kts 207°
2026-04-26 10:04 -33.93961 150.98199 1328 ft 62 kts 208°
2026-04-26 10:04 -33.94338 150.97961 1431 ft 61 kts 212°
2026-04-26 10:05 -33.94765 150.97696 1429 ft 80 kts 212°
2026-04-26 10:05 -33.95274 150.97337 1477 ft 88 kts 214°
2026-04-26 10:05 -33.95967 150.96918 1554 ft 127 kts 208°
2026-04-26 10:05 -33.96770 150.96415 1519 ft 133 kts 208°
2026-04-26 10:06 -33.97545 150.95917 1354 ft 110 kts 211°
2026-04-26 10:06 -33.98155 150.95488 1345 ft 101 kts 213°
2026-04-26 10:06 -33.98774 150.95018 1207 ft 114 kts 213°
2026-04-26 10:06 -33.99532 150.94558 730 ft 120 kts 178°
2026-04-26 10:07 -34.00087 150.94876 772 ft 69 kts 135°
2026-04-26 10:07 -34.00224 150.95391 690 ft 70 kts 88°
2026-04-26 10:07 -33.99899 150.95727 461 ft 55 kts 328°
2026-04-26 10:07 -33.99726 150.95507 335 ft 32 kts 318°
2026-04-26 10:08 -33.99612 150.95295 276 ft 12 kts 321°
2026-04-26 10:08 -33.99601 150.95276 238 ft 0 kts 313°
2026-04-26 10:08 -33.99575 150.95242 238 ft 13 kts 339°
2026-04-26 10:08 -33.99516 150.95279 237 ft 8 kts 36°
2026-04-26 10:09 -33.99484 150.95274 237 ft 7 kts 304°
2026-04-26 10:09 -33.99484 150.95228 236 ft 4 kts 179°
2026-04-26 10:09 -33.99498 150.95237 236 ft 2 kts 136°
2026-04-26 10:09 -33.99504 150.95248 236 ft 0 kts 121°